Baqargarh, India

12:25 AM IST on January 23, 2017 (GMT +0530)
Indira Gandhi International | | Change Station

Elev 764 ft 28.57 °N, 77.12 °E | Updated 25 minutes ago

Fog
Fog
57 °F
Feels Like 57 °F
N
0
Wind Variable Wind from North

Today
High -- | Low -- °F
--% Chance of Precip.
Yesterday
High -- | Low -- °F
Precip. -- in
Pressure 30.15 in
Visibility 0.2 miles
Clouds
Dew Point 55 °F
Humidity 94%
Rainfall 0.00 in
Snow Depth Not available.
7:14 AM 5:54 PM
Waning Crescent, 24% visible
METAR VIDP 221830Z 00000KT 0400 R28/1600 R29/1000 FG NSC 14/13 Q1021 BECMG 0350 FG
Pressure 30.15 in
Visibility 0.2 miles
Clouds
Dew Point 55 °F
Humidity 94%
Rainfall 0.00 in
Snow Depth Not available.
7:14 AM 5:54 PM
Waning Crescent, 24% visible
METAR VIDP 221830Z 00000KT 0400 R28/1600 R29/1000 FG NSC 14/13 Q1021 BECMG 0350 FG

Get Your Daily Forecast Email!

Thanks for signing up!

Be on the lookout for a verification email in your inbox.

You'll start receiving the daily forecast at 8 AM.

×

10-Day Weather Forecast

No radar image for this location.
×

Almanac

Astronomy

Jan. 23, 2017 Rise Set
Actual Time
Civil Twilight
Nautical Twilight
Astronomical Twilight
Moon
Length of Visible Light
Length of Day
Tomorrow will be .
, % of the Moon is Illuminated

Today's Extremes

Country Highs Country Lows

Community

WunderPhotos

Upload Photos

1,962,540 photos uploaded!

WunderBlog® & News

Nearby

Air Quality

  Air Quality AQ Index Pollutant
Not available.

Snow Depth

Station Depth Elevation

Earthquake Activity

City Distance Mag. Time & Date
Minimum magnitude displayed is 2.5.

Coastal Water Temperatures

Place Temperature

Stations

Nearby Weather Stations

Station Location Temp. Windchill Dew Point Humidity Wind Precip. Elev Updated Type